This demonstration page uses our WeatherBlox Daily Observations layout. Learn more.

Hourly Observations for January 14, 2020

Temp ( °F °C ) Dew Point ( °F °C ) Humidity (%) Winds ( mph kmh ) Pressure ( in mb ) Visibility ( mi km ) Precip ( " mm )
12:15 am 00:15 Clear 26 -3.4 23 -5.2 88 88 Calm 30.13 1020 10 16.0934 0 0
12:35 am 00:35 Clear 21 -5.9 18 -7.6 88 88 Calm 30.16 1021 10 16.0934 0 0
12:55 am 00:55 Clear 23 -5 20 -6.4 90 90 Calm 30.14 1021 10 16.0934 0 0
1:15 am 01:15 Clear 25 -4 22 -5.4 90 90 W 6 9 30.13 1020 10 16.0934 0 0
1:35 am 01:35 Clear 30 -0.9 23 -4.9 75 75 W 7 11 30.1 1019 10 16.0934 0 0
1:55 am 01:55 Clear 29 -1.5 22 -5.5 74 74 W 5 7 30.11 1020 10 16.0934 0 0
2:15 am 02:15 Clear 25 -3.7 20 -6.8 79 79 Calm 30.13 1020 10 16.0934 0 0
2:35 am 02:35 Clear 23 -4.8 17 -8.1 78 78 Calm 30.15 1021 10 16.0934 0 0
2:55 am 02:55 Clear 23 -5.1 20 -6.9 87 87 NW 5 7 30.15 1021 10 16.0934 0 0
3:15 am 03:15 Clear 27 -2.7 20 -6.6 75 75 Calm 30.14 1021 10 16.0934 0 0
3:35 am 03:35 Clear 25 -4.1 18 -7.6 77 77 Calm 30.15 1021 10 16.0934 0 0
3:55 am 03:55 Clear 23 -5 18 -7.8 81 81 Calm 30.17 1022 10 16.0934 0 0
4:15 am 04:15 Clear 21 -5.9 17 -8.3 83 83 Calm 30.19 1022 10 16.0934 0 0
4:35 am 04:35 Clear 20 -6.5 17 -8.4 87 87 Calm 30.2 1023 10 16.0934 0 0
4:55 am 04:55 Clear 20 -6.6 17 -8.4 87 87 Calm 30.21 1023 10 16.0934 0 0
5:15 am 05:15 Clear 18 -8 15 -9.5 89 89 Calm 30.23 1024 10 16.0934 0 0
5:35 am 05:35 Clear 19 -7.2 16 -8.7 89 89 Calm 30.22 1023 10 16.0934 0 0
5:55 am 05:55 Clear 16 -8.7 14 -10.2 89 89 Calm 30.24 1024 10 16.0934 0 0
6:15 am 06:15 Clear 20 -6.6 17 -8.5 87 87 Calm 30.23 1024 10 16.0934 0 0
6:35 am 06:35 Clear 19 -7.5 15 -9.3 87 87 Calm 30.25 1024 10 16.0934 0 0
6:55 am 06:55 Clear 16 -9.1 13 -10.6 89 89 NNE 3 6 30.28 1025 10 16.0934 0 0
7:15 am 07:15 Clear 17 -8.2 15 -9.7 89 89 NNE 5 7 30.27 1025 10 16.0934 0 0
7:35 am 07:35 Clear 16 -9 13 -10.5 89 89 ENE 8 13 30.26 1025 10 16.0934 0 0
7:55 am 07:55 Clear 19 -7.5 16 -8.7 91 91 NE 8 13 30.25 1024 10 16.0934 0 0
8:15 am 08:15 Sunny 18 -7.7 16 -9.1 90 90 ENE 8 13 30.25 1024 10 16.0934 0 0
8:35 am 08:35 Sunny 19 -7.2 17 -8.5 91 91 ENE 9 15 30.25 1024 10 16.0934 0 0
8:55 am 08:55 Sunny 20 -6.6 18 -7.7 92 92 ENE 9 15 30.24 1024 10 16.0934 0 0
9:15 am 09:15 Sunny 21 -6 19 -7.1 92 92 ENE 12 19 30.22 1023 10 16.0934 0 0
9:35 am 09:35 Sunny 22 -5.5 20 -6.8 91 91 NE 7 11 30.23 1024 10 16.0934 0 0
9:55 am 09:55 Sunny 24 -4.7 21 -6.2 89 89 E 6 9 30.22 1023 10 16.0934 0 0
10:15 am 10:15 Sunny 25 -4.1 21 -5.9 87 87 E 9 15 30.22 1023 10 16.0934 0 0
10:35 am 10:35 Sunny 26 -3.4 23 -5.1 88 88 ENE 8 13 30.21 1023 10 16.0934 0 0
10:55 am 10:55 Sunny 28 -2.5 24 -4.6 86 86 E 9 15 30.2 1023 10 16.0934 0 0
11:15 am 11:15 Sunny 29 -1.6 23 -4.8 79 79 E 10 17 30.19 1022 10 16.0934 0 0
11:35 am 11:35 Sunny 30 -0.9 23 -4.8 75 75 E 13 20 30.17 1022 10 16.0934 0 0
11:55 am 11:55 Sunny 32 -0.2 24 -4.7 72 72 E 12 19 30.16 1021 10 16.0934 0 0
12:15 pm 12:15 Sunny 32 -0.2 24 -4.5 73 73 E 13 20 30.14 1021 10 16.0934 0 0
12:35 pm 12:35 Sunny 32 0 24 -4.4 73 73 E 12 19 30.11 1020 10 16.0934 0 0
12:55 pm 12:55 Sunny 32 0 24 -4.4 73 73 E 12 19 30.1 1019 10 16.0934 0 0
1:15 pm 13:15 Sunny 32 0.2 25 -4 74 74 E 12 19 30.09 1019 10 16.0934 0 0
1:35 pm 13:35 Sunny 33 0.6 24 -4.2 71 71 E 10 17 30.06 1018 10 16.0934 0 0
1:55 pm 13:55 Sunny 33 0.8 25 -4.1 70 70 ESE 13 20 30.05 1018 10 16.0934 0 0
2:15 pm 14:15 Sunny 34 1 25 -3.9 70 70 E 13 20 30.03 1017 10 16.0934 0 0
2:35 pm 14:35 Sunny 35 1.5 25 -3.7 69 69 E 10 17 30.03 1017 10 16.0934 0 0
2:55 pm 14:55 Sunny 34 1.3 25 -3.9 69 69 E 14 22 30.01 1016 10 16.0934 0 0
3:15 pm 15:15 Sunny 34 1.3 25 -3.7 70 70 ESE 13 20 30 1016 10 16.0934 0 0
3:35 pm 15:35 Sunny 35 1.4 26 -3.6 70 70 E 12 19 30.01 1016 10 16.0934 0 0
3:55 pm 15:55 Sunny 34 1.1 26 -3.5 72 72 E 14 22 30 1016 10 16.0934 0 0
4:15 pm 16:15 Sunny 34 0.9 26 -3.5 73 73 E 14 22 30 1016 10 16.0934 0 0
4:35 pm 16:35 Sunny 33 0.6 26 -3.5 74 74 ESE 15 24 30.01 1016 10 16.0934 0 0
4:55 pm 16:55 Sunny 33 0.4 26 -3.5 75 75 E 13 20 30 1016 10 16.0934 0 0
5:15 pm 17:15 Mostly Cloudy 33 0.5 26 -3.2 77 77 E 14 22 29.99 1016 10 16.0934 0 0
5:35 pm 17:35 Cloudy 33 0.3 27 -3 79 79 ESE 13 20 29.99 1016 10 16.0934 0 0
5:55 pm 17:55 Cloudy 32 0.2 27 -2.7 81 81 ESE 14 22 29.99 1016 10 16.0934 0 0
6:15 pm 18:15 Cloudy 32 0 28 -2.1 86 86 ESE 13 20 29.99 1016 7 11.26538 0 0
6:35 pm 18:35 Cloudy 31 -0.3 28 -2 88 88 ESE 14 22 29.99 1015 10 16.0934 0 0
6:55 pm 18:55 Cloudy 31 -0.5 29 -1.6 92 92 ESE 12 19 30 1016 10 16.0934 0 0
7:15 pm 19:15 Cloudy 31 -0.6 29 -1.5 94 94 ESE 10 17 30.01 1016 10 16.0934 0 0
7:35 pm 19:35 Cloudy 31 -0.7 29 -1.6 94 94 ESE 12 19 30 1016 10 16.0934 0 0
7:55 pm 19:55 Cloudy 31 -0.8 29 -1.5 95 95 ESE 10 17 30 1016 10 16.0934 0 0
8:15 pm 20:15 Cloudy 31 -0.8 30 -1.3 96 96 ESE 9 15 30 1016 7 11.26538 0 0
8:35 pm 20:35 Cloudy 31 -0.7 29 -1.5 94 94 ESE 9 15 29.99 1016 10 16.0934 0 0
8:55 pm 20:55 Cloudy 31 -0.7 29 -1.5 94 94 ESE 13 20 29.99 1016 10 16.0934 0 0
9:15 pm 21:15 Cloudy 31 -0.7 29 -1.6 94 94 E 10 17 29.99 1016 10 16.0934 0 0
9:35 pm 21:35 Cloudy 31 -0.7 29 -1.5 94 94 E 7 11 29.99 1016 10 16.0934 0 0
9:55 pm 21:55 Cloudy 30 -0.9 29 -1.7 94 94 E 7 11 29.99 1016 10 16.0934 0 0
10:15 pm 22:15 Cloudy 30 -1 29 -1.7 95 95 E 10 17 29.99 1016 10 16.0934 0 0
10:35 pm 22:35 Cloudy 30 -1.2 28 -2 94 94 ENE 8 13 30.01 1016 10 16.0934 0 0
10:55 pm 22:55 Cloudy 29 -1.4 28 -2 96 96 ENE 7 11 30.01 1016 10 16.0934 0 0
11:15 pm 23:15 Cloudy 29 -1.5 28 -2 96 96 ENE 8 13 30.02 1017 7 11.26538 0 0
11:35 pm 23:35 Cloudy with Mist and Fog 29 -1.8 28 -2.1 98 98 ENE 10 17 30.01 1016 3 4.82802 0 0
11:55 pm 23:55 Cloudy with Mist and Fog 29 -1.8 28 -2 99 99 NE 9 15 30.01 1016 2.5 4.02335 0 0

Powered by AerisWeather